Weather History for Monticello, KY

Change the Weather History Date:

Tuesday, April 9, 2013

  Actual Average Record
Temperature  
Mean Temperature 66 °F -  
Max Temperature 79 °F 64 °F 86 °F (1978)
Min Temperature 52 °F 41 °F 22 °F (1990)
Growing Degree Days 16 (Base 50)    
Moisture  
Dew Point 55 °F    
Average Humidity 66    
Maximum Humidity 96    
Minimum Humidity 45    
Precipitation  
Precipitation 0.00 in - - ()
Sea Level Pressure  
Sea Level Pressure 30.09 in    
Wind  
Wind Speed 5 mph (SSW)    
Max Wind Speed 17 mph    
Max Gust Speed 25 mph    
Visibility 10 miles    
Events      
Averages and records for this station are not official NWS values.
T = Trace of Precipitation, MM = Missing Value Source: NWS Daily Summary

Daily Weather History Graph

Daily Weather History Graph

Search for Another Location

Airport:

Trip Planner

Search our weather history database for the weather conditions in past years. The results will help you decide how hot, cold, wet, or windy it might be!

Date:

Astronomy

Apr. 09, 2013 Rise Set
Actual Time 6:13 AM CDT 7:09 PM CDT
Civil Twilight 5:46 AM CDT 7:35 PM CDT
Nautical Twilight 5:15 AM CDT 8:06 PM CDT
Astronomical Twilight 4:43 AM CDT 8:39 PM CDT
Moon 5:34 AM CDT (4/9) 6:43 PM CDT (4/9)
Length of Visible Light 13h 48m
Length of Day
12h 55m
Waning Crescent, 1% of the Moon is Illuminated
Apr 9
Waning Crescent
Apr 10
New
Apr 18
First Quarter
Apr 25
Full
May 2
Last Quarter

Hourly Weather History & Observations

Time (CDT) Temp. Dew Point Humidity Pressure Visibility Wind Dir Wind Speed Gust Speed Precip Events Conditions
12:56 AM 55.9 °F 52.0 °F 87% 30.08 in 10.0 mi Calm Calm - N/A   Scattered Clouds
1:56 AM 54.9 °F 50.9 °F 86% 30.08 in 10.0 mi Calm Calm - N/A   Scattered Clouds
2:56 AM 54.9 °F 52.9 °F 93% 30.07 in 10.0 mi Calm Calm - N/A   Mostly Cloudy
3:56 AM 55.9 °F 52.0 °F 87% 30.08 in 10.0 mi Calm Calm - N/A   Partly Cloudy
4:56 AM 52.0 °F 50.9 °F 96% 30.10 in 10.0 mi Calm Calm - N/A   Scattered Clouds
5:56 AM 52.0 °F 50.9 °F 96% 30.12 in 10.0 mi Calm Calm - N/A   Partly Cloudy
6:56 AM 52.9 °F 50.9 °F 93% 30.15 in 10.0 mi Calm Calm - N/A   Partly Cloudy
7:56 AM 63.9 °F 55.9 °F 75% 30.16 in 10.0 mi Calm Calm - N/A   Overcast
8:56 AM 70.9 °F 56.8 °F 61% 30.17 in 10.0 mi South 10.4 mph - N/A   Mostly Cloudy
9:56 AM 74.8 °F 57.9 °F 55% 30.15 in 10.0 mi SSW 13.8 mph 19.6 mph N/A   Partly Cloudy
10:56 AM 75.9 °F 59.0 °F 56% 30.16 in 10.0 mi South 13.8 mph - N/A   Scattered Clouds
11:56 AM 75.9 °F 57.9 °F 54% 30.16 in 10.0 mi SW 16.1 mph 24.2 mph N/A   Scattered Clouds
12:56 PM 75.9 °F 59.0 °F 56% 30.15 in 10.0 mi SW 17.3 mph 25.3 mph N/A   Partly Cloudy
1:56 PM 77.9 °F 59.0 °F 52% 30.11 in 10.0 mi SW 12.7 mph 23.0 mph N/A   Partly Cloudy
2:56 PM 77.0 °F 56.8 °F 50% 30.09 in 10.0 mi SW 13.8 mph - N/A   Clear
3:56 PM 77.0 °F 57.9 °F 52% 30.05 in 10.0 mi SW 6.9 mph - N/A   Clear
4:56 PM 79.0 °F 55.9 °F 45% 30.03 in 10.0 mi South 9.2 mph - N/A   Clear
5:56 PM 77.9 °F 54.9 °F 45% 30.02 in 10.0 mi South 8.1 mph - N/A   Clear
6:56 PM 73.9 °F 55.9 °F 53% 30.04 in 10.0 mi South 6.9 mph - N/A   Clear
7:56 PM 74.8 °F 55.9 °F 52% 30.04 in 10.0 mi South 6.9 mph - N/A   Clear
8:56 PM 70.0 °F 56.8 °F 63% 30.06 in 10.0 mi South 6.9 mph - N/A   Clear
9:56 PM 70.0 °F 55.9 °F 61% 30.06 in 10.0 mi SSW 8.1 mph - N/A   Clear
10:56 PM 68.0 °F 55.9 °F 65% 30.06 in 10.0 mi SSW 8.1 mph - N/A   Clear
11:56 PM 70.0 °F 54.9 °F 59% 30.05 in 10.0 mi South 9.2 mph - N/A   Clear